Date String (YYYY-MM-DD hh:mm:ss) UTC,Instrument flags,absolute air pressure of the measurement (hPa),sample flow rate (lpm),inlet stack bypass flow (lpm),air temperature of the measurement (°C),ambient temperature measured by the external sensor (°C),aerosol sample conditioner tube jacket temperature (°C),OPC LED temperature (°C),internal box temperature (°C),relative humidity of the measurement (%),span deviation,mass concentration of particles derived from Lorenz-Mie calculation of OPC scattering (μg/m³),mass concentration of particles derived from Lorenz-Mie calculation of OPC scattering (μg/m³),mass concentration of particles derived from Lorenz-Mie calculation of OPC scattering (μg/m³)
DateTimeUTC,F1_M11,P_M11,Q1_M11,Q2_M11,T1_M11,T2_M11,T3_M11,T4_M11,T5_M11,U1_M11,ZSPAN_M11,X0_M11,X2_M11,X1_M11
2023-07-03 16:00:00,SystemResetWarning,0832.0,5.00,000.00,028.9,026.2,000.0,037.3,030.3,24.2,0000.0,0009.90,0004.68,0004.12
2023-07-03 16:01:00,SystemResetWarning,0832.0,4.99,000.00,028.9,026.6,000.0,037.4,030.4,24.3,0000.0,0009.41,0004.65,0004.09
2023-07-03 16:02:00,SystemResetWarning,0832.0,4.99,000.00,028.9,026.9,000.0,037.4,030.5,24.3,0000.0,0009.37,0004.68,0004.08
2023-07-03 16:03:00,SystemResetWarning,0832.0,5.00,000.00,028.9,027.2,000.0,037.4,030.6,25.0,0000.0,0009.33,0004.65,0004.07
2023-07-03 16:04:00,SystemResetWarning,0832.0,5.02,000.00,028.9,027.4,000.0,037.4,030.6,24.8,0000.0,0009.53,0004.58,0004.04
2023-07-03 16:05:00,SystemResetWarning,0832.0,5.01,000.00,029.0,027.6,000.0,037.4,030.7,23.4,0000.0,0010.17,0004.54,0004.03
2023-07-03 16:06:00,SystemResetWarning,0832.0,5.00,000.00,029.0,027.7,000.0,037.5,030.8,23.5,0000.0,0010.35,0004.51,0004.03
2023-07-03 16:07:00,SystemResetWarning,0832.0,4.98,000.00,029.1,026.8,000.0,037.4,030.6,23.8,0000.0,0010.85,0004.50,0004.02
2023-07-03 16:08:00,SystemResetWarning,0832.0,5.01,000.00,029.0,025.3,000.0,037.3,030.4,24.1,0000.0,0010.45,0004.48,0004.01
2023-07-03 16:09:00,SystemResetWarning,0832.0,5.01,000.00,028.9,025.1,000.0,037.2,030.3,25.6,0000.0,0009.73,0004.44,0004.00
2023-07-03 16:10:00,SystemResetWarning,0832.0,5.01,000.00,028.8,025.4,000.0,037.2,030.2,25.3,0000.0,0009.99,0004.42,0003.99
2023-07-03 16:11:00,SystemResetWarning,0832.0,5.00,000.00,028.8,025.8,000.0,037.3,030.2,25.6,0000.0,0010.15,0004.45,0003.99
2023-07-03 16:12:00,SystemResetWarning,0832.0,5.01,000.00,028.8,026.2,000.0,037.3,030.3,26.1,0000.0,0010.27,0004.46,0004.00
2023-07-03 16:13:00,SystemResetWarning,0832.0,5.01,000.00,028.8,026.6,000.0,037.3,030.4,25.8,0000.0,0010.24,0004.45,0004.00
2023-07-03 16:14:00,SystemResetWarning,0832.1,4.98,000.00,028.9,026.9,000.0,037.3,030.5,26.0,0000.0,0010.33,0004.48,0004.00
2023-07-03 16:15:00,SystemResetWarning,0832.0,5.00,000.00,028.9,027.2,000.0,037.3,030.5,25.7,0000.0,0010.16,0004.47,0004.01
2023-07-03 16:16:00,SystemResetWarning,0832.0,5.02,000.00,028.9,027.4,000.0,037.4,030.6,23.2,0000.0,0009.31,0004.47,0004.02
2023-07-03 16:17:00,SystemResetWarning,0832.0,4.98,000.00,029.0,027.6,000.0,037.4,030.7,23.0,0000.0,0009.39,0004.47,0004.02
2023-07-03 16:18:00,SystemResetWarning,0832.1,5.00,000.00,029.0,027.6,000.0,037.4,030.7,22.3,0000.0,0009.50,0004.48,0004.00
2023-07-03 16:19:00,SystemResetWarning,0832.0,5.00,000.00,029.0,026.3,000.0,037.3,030.5,22.3,0000.0,0009.33,0004.45,0003.99
2023-07-03 16:20:00,SystemResetWarning,0832.0,5.01,000.00,028.9,025.0,000.0,037.2,030.3,23.2,0000.0,0009.86,0004.47,0003.98
2023-07-03 16:21:00,SystemResetWarning,0832.0,5.01,000.00,028.9,025.1,000.0,037.1,030.2,23.7,0000.0,0009.97,0004.45,0003.96
2023-07-03 16:22:00,SystemResetWarning,0832.0,5.01,000.00,028.8,025.5,000.0,037.2,030.1,25.0,0000.0,0010.27,0004.43,0003.96
2023-07-03 16:23:00,SystemResetWarning,0832.0,5.00,000.00,028.8,025.9,000.0,037.2,030.2,26.1,0000.0,0010.35,0004.40,0003.96
2023-07-03 16:24:00,SystemResetWarning,0832.1,4.99,000.00,028.8,026.3,000.0,037.2,030.3,26.5,0000.0,0010.29,0004.38,0003.96
2023-07-03 16:25:00,SystemResetWarning,0832.1,4.99,000.00,028.8,026.7,000.0,037.3,030.4,27.6,0000.0,0010.21,0004.35,0003.97
2023-07-03 16:26:00,SystemResetWarning,0832.0,5.00,000.00,028.8,027.0,000.0,037.3,030.4,27.6,0000.0,0010.32,0004.39,0003.99
2023-07-03 16:27:00,SystemResetWarning,0832.0,5.02,000.00,028.9,027.2,000.0,037.3,030.5,28.0,0000.0,0010.41,0004.43,0004.01
2023-07-03 16:28:00,SystemResetWarning,0832.1,5.00,000.00,028.9,027.5,000.0,037.3,030.6,28.0,0000.0,0010.37,0004.46,0004.03
2023-07-03 16:29:00,SystemResetWarning,0832.1,5.00,000.00,028.9,027.6,000.0,037.3,030.7,28.5,0000.0,0009.63,0004.49,0004.08
2023-07-03 16:30:00,SystemResetWarning,0832.0,4.99,000.00,028.9,026.6,000.0,037.2,030.6,28.0,0000.0,0009.79,0004.57,0004.14
2023-07-03 16:31:00,SystemResetWarning,0832.0,5.00,000.00,028.9,025.1,000.0,037.1,030.3,27.1,0000.0,0009.49,0004.69,0004.22
2023-07-03 16:32:00,SystemResetWarning,0832.0,5.01,000.00,028.8,025.0,000.0,037.1,030.2,26.0,0000.0,0009.10,0004.76,0004.31
2023-07-03 16:33:00,SystemResetWarning,0832.0,5.01,000.00,028.8,025.4,000.0,037.1,030.1,25.0,0000.0,0008.82,0004.86,0004.38
2023-07-03 16:34:00,SystemResetWarning,0832.0,5.00,000.00,028.7,025.8,000.0,037.1,030.2,25.2,0000.0,0008.48,0004.91,0004.42
2023-07-03 16:35:00,SystemResetWarning,0832.1,5.00,000.00,028.7,026.2,000.0,037.2,030.3,25.1,0000.0,0008.52,0004.97,0004.45
2023-07-03 16:36:00,SystemResetWarning,0832.1,5.00,000.00,028.8,026.6,000.0,037.2,030.3,26.2,0000.0,0008.59,0004.98,0004.46
2023-07-03 16:37:00,SystemResetWarning,0832.1,4.99,000.00,028.8,026.9,000.0,037.2,030.4,26.8,0000.0,0008.62,0004.98,0004.46
2023-07-03 16:38:00,SystemResetWarning,0832.0,5.01,000.00,028.8,027.2,000.0,037.3,030.5,27.4,0000.0,0009.16,0005.02,0004.47
2023-07-03 16:39:00,SystemResetWarning,0832.0,5.02,000.00,028.9,027.4,000.0,037.3,030.6,27.5,0000.0,0009.55,0005.05,0004.48
2023-07-03 16:40:00,SystemResetWarning,0832.1,4.99,000.00,028.9,027.6,000.0,037.3,030.6,28.7,0000.0,0009.67,0005.02,0004.46
2023-07-03 16:41:00,SystemResetWarning,0832.0,4.98,000.00,028.9,026.9,000.0,037.2,030.6,27.4,0000.0,0009.48,0005.02,0004.46
2023-07-03 16:42:00,SystemResetWarning,0832.0,5.00,000.00,028.9,025.3,000.0,037.1,030.3,27.6,0000.0,0009.56,0004.99,0004.45
2023-07-03 16:43:00,SystemResetWarning,0832.0,5.00,000.00,028.8,025.0,000.0,037.0,030.2,27.8,0000.0,0009.91,0004.99,0004.43
2023-07-03 16:44:00,SystemResetWarning,0832.0,5.01,000.00,028.8,025.3,000.0,037.1,030.1,28.5,0000.0,0009.82,0004.96,0004.41
2023-07-03 16:45:00,SystemResetWarning,0832.1,5.01,000.00,028.7,025.7,000.0,037.1,030.1,28.7,0000.0,0009.89,0004.97,0004.42
2023-07-03 16:46:00,SystemResetWarning,0832.1,4.99,000.00,028.7,026.1,000.0,037.1,030.2,28.8,0000.0,0009.79,0004.97,0004.44
2023-07-03 16:47:00,SystemResetWarning,0832.1,5.00,000.00,028.7,026.5,000.0,037.2,030.3,28.7,0000.0,0009.66,0004.97,0004.46
2023-07-03 16:48:00,SystemResetWarning,0832.1,5.01,000.00,028.7,026.8,000.0,037.2,030.4,28.8,0000.0,0009.64,0004.98,0004.49
2023-07-03 16:49:00,SystemResetWarning,0832.1,5.00,000.00,028.8,027.1,000.0,037.2,030.5,28.2,0000.1,0009.77,0004.96,0004.51
2023-07-03 16:50:00,SystemResetWarning,0832.1,4.98,000.00,028.8,027.4,000.0,037.2,030.5,28.9,0000.0,0009.84,0004.95,0004.52
2023-07-03 16:51:00,SystemResetWarning,0832.1,5.00,000.00,028.9,027.5,000.0,037.2,030.6,28.0,0000.0,0010.59,0004.98,0004.54
2023-07-03 16:52:00,SystemResetWarning,0832.1,5.00,000.00,028.9,026.2,000.0,037.1,030.4,29.1,0000.0,0011.15,0004.99,0004.53
2023-07-03 16:53:00,SystemResetWarning,0832.1,5.00,000.00,028.8,024.9,000.0,037.0,030.2,28.4,0000.0,0011.65,0004.96,0004.50
2023-07-03 16:54:00,SystemResetWarning,0832.1,5.01,000.00,028.7,025.0,000.0,037.0,030.2,27.5,0000.0,0011.47,0004.94,0004.48
2023-07-03 16:55:00,SystemResetWarning,0832.1,5.01,000.00,028.7,025.3,000.0,037.0,030.1,27.8,0000.0,0011.67,0004.94,0004.46
2023-07-03 16:56:00,SystemResetWarning,0832.1,4.99,000.00,028.6,025.8,000.0,037.1,030.1,28.6,0000.0,0011.72,0004.90,0004.44
2023-07-03 16:57:00,SystemResetWarning,0832.1,5.00,000.00,028.7,026.2,000.0,037.1,030.2,28.7,0000.0,0011.78,0004.89,0004.42
2023-07-03 16:58:00,SystemResetWarning,0832.1,5.00,000.00,028.7,026.5,000.0,037.1,030.3,26.8,0000.0,0011.95,0004.92,0004.40
2023-07-03 16:59:00,SystemResetWarning,0832.1,4.99,000.00,028.7,026.9,000.0,037.1,030.3,27.6,0000.0,0012.31,0004.97,0004.39
